| time (UTC) | temp F | wind direction | speed knots | gust knots | rain 1hr in | rain 24hr in | rain mn in | humidity % | barometer mb |
| 20260509135346 | 51 | 0 | 0.0 | 0.0 | 0.04 | 0.00 | 0.16 | 96 | 1011.9 |
| 20260509134846 | 51 | 0 | 0.0 | 0.0 | 0.02 | 0.00 | 0.15 | 96 | 1011.7 |
| 20260509134345 | 51 | 0 | 0.0 | 0.0 | 0.04 | 0.00 | 0.14 | 96 | 1011.6 |
| 20260509133845 | 51 | 0 | 0.0 | 0.0 | 0.05 | 0.00 | 0.14 | 96 | 1011.6 |
| 20260509133346 | 51 | 0 | 0.0 | 0.0 | 0.07 | 0.00 | 0.13 | 96 | 1011.6 |
| 20260509132846 | 51 | 207 | 0.0 | 0.0 | 0.06 | 0.00 | 0.13 | 95 | 1011.6 |
| 20260509132346 | 51 | 0 | 0.0 | 0.0 | 0.23 | 0.00 | 0.14 | 95 | 1011.7 |
| 20260509131845 | 51 | 0 | 0.0 | 0.0 | 0.12 | 0.00 | 0.12 | 95 | 1011.7 |
| 20260509131345 | 51 | 228 | 0.0 | 0.9 | 0.07 | 0.00 | 0.11 | 95 | 1011.8 |
| 20260509130846 | 51 | 256 | 1.7 | 1.7 | 0.08 | 0.00 | 0.10 | 94 | 1011.8 |
| 20260509130346 | 51 | 0 | 0.0 | 0.0 | 0.06 | 0.00 | 0.09 | 93 | 1011.6 |
| 20260509125846 | 51 | 0 | 0.0 | 0.0 | 0.03 | 0.00 | 0.08 | 94 | 1011.7 |
| 20260509125346 | 51 | 0 | 0.0 | 0.0 | 0.09 | 0.00 | 0.08 | 94 | 1011.6 |
| 20260509124845 | 51 | 0 | 0.0 | 0.0 | 0.07 | 0.00 | 0.07 | 93 | 1011.6 |
| 20260509124345 | 51 | 0 | 0.0 | 0.0 | 0.19 | 0.00 | 0.07 | 93 | 1011.6 |
| 20260509123845 | 51 | 0 | 0.0 | 0.0 | 0.07 | 0.00 | 0.06 | 93 | 1011.7 |
| 20260509123346 | 51 | 269 | 0.9 | 1.7 | 0.02 | 0.00 | 0.04 | 93 | 1011.7 |
| 20260509122845 | 50 | 0 | 0.0 | 0.0 | 0.01 | 0.00 | 0.04 | 93 | 1011.7 |
| 20260509122346 | 50 | 0 | 0.0 | 0.0 | 0.02 | 0.00 | 0.04 | 93 | 1011.7 |
| 20260509121846 | 50 | 0 | 0.0 | 0.0 | 0.01 | 0.00 | 0.03 | 93 | 1011.7 |
| 20260509121345 | 50 | 0 | 0.0 | 0.0 | 0.00 | 0.00 | 0.03 | 93 | 1011.7 |
| 20260509120845 | 50 | 0 | 0.0 | 0.0 | 0.00 | 0.00 | 0.03 | 92 | 1011.7 |
| 20260509120346 | 50 | 0 | 0.0 | 0.0 | 0.00 | 0.00 | 0.03 | 93 | 1011.7 |
| 20260509115846 | 49 | 0 | 0.0 | 0.0 | 0.00 | 0.00 | 0.03 | 93 | 1011.8 |
| 20260509115345 | 49 | 0 | 0.0 | 0.0 | 0.00 | 0.00 | 0.03 | 92 | 1011.9 |
| 20260509114848 | 49 | 238 | 1.7 | 1.7 | 0.01 | 0.00 | 0.03 | 92 | 1012.0 |
| 20260509114345 | 49 | 160 | 0.0 | 0.9 | 0.03 | 0.00 | 0.02 | 92 | 1011.9 |
| 20260509113845 | 49 | 0 | 0.0 | 0.0 | 0.01 | 0.00 | 0.02 | 93 | 1011.9 |
| 20260509113346 | 49 | 0 | 0.0 | 0.0 | 0.00 | 0.00 | 0.02 | 92 | 1011.8 |
| 20260509112845 | 49 | 0 | 0.0 | 0.0 | 0.00 | 0.00 | 0.02 | 92 | 1011.9 |
| 20260509112345 | 49 | 0 | 0.0 | 0.0 | 0.00 | 0.00 | 0.02 | 92 | 1011.8 |
| 20260509111845 | 49 | 226 | 0.0 | 1.7 | 0.00 | 0.00 | 0.02 | 92 | 1011.8 |
| 20260509111346 | 49 | 0 | 0.0 | 0.0 | 0.00 | 0.00 | 0.02 | 92 | 1011.6 |
| 20260509110846 | 49 | 0 | 0.0 | 0.0 | 0.00 | 0.00 | 0.02 | 92 | 1011.6 |
| 20260509110346 | 49 | 0 | 0.0 | 0.0 | 0.00 | 0.00 | 0.02 | 92 | 1011.6 |
| 20260509105846 | 49 | 0 | 0.0 | 0.0 | 0.00 | 0.00 | 0.02 | 91 | 1011.5 |
| 20260509105346 | 49 | 0 | 0.0 | 0.0 | 0.00 | 0.00 | 0.02 | 91 | 1011.4 |
| 20260509104845 | 49 | 198 | 0.0 | 0.9 | 0.00 | 0.00 | 0.02 | 90 | 1011.3 |
| 20260509104345 | 49 | 0 | 0.0 | 0.0 | 0.00 | 0.00 | 0.02 | 90 | 1011.2 |
| 20260509103845 | 49 | 0 | 0.0 | 0.0 | 0.00 | 0.00 | 0.02 | 90 | 1011.1 |
| 20260509103349 | 49 | 0 | 0.0 | 0.0 | 0.00 | 0.00 | 0.01 | 89 | 1011.1 |
| 20260509102845 | 49 | 325 | 0.0 | 1.7 | 0.01 | 0.00 | 0.01 | 88 | 1011.1 |
| 20260509102346 | 49 | 325 | 0.9 | 1.7 | 0.01 | 0.00 | 0.00 | 87 | 1011.2 |
| 20260509101845 | 49 | 308 | 0.0 | 0.0 | 0.03 | 0.00 | 0.00 | 87 | 1011.1 |
| 20260509101346 | 49 | 0 | 0.0 | 0.0 | 0.00 | 0.00 | 0.00 | 85 | 1010.9 |
| 20260509100846 | 49 | 0 | 0.0 | 0.0 | 0.00 | 0.00 | 0.00 | 86 | 1010.9 |
| 20260509100346 | 49 | 301 | 0.0 | 0.9 | 0.00 | 0.00 | 0.00 | 86 | 1010.9 |
| 20260509095845 | 49 | 0 | 0.0 | 0.0 | 0.00 | 0.00 | 0.00 | 85 | 1010.9 |
| 20260509095345 | 49 | 0 | 0.0 | 0.0 | 0.00 | 0.00 | 0.00 | 84 | 1010.7 |
| 20260509094846 | 49 | 0 | 0.0 | 0.0 | 0.00 | 0.00 | 0.00 | 84 | 1010.7 |
| 20260509094346 | 49 | 0 | 0.0 | 0.0 | 0.00 | 0.00 | 0.00 | 85 | 1010.7 |
| 20260509093845 | 49 | 0 | 0.0 | 0.0 | 0.00 | 0.00 | 0.00 | 82 | 1010.7 |
| 20260509093345 | 49 | 0 | 0.0 | 0.0 | 0.00 | 0.00 | 0.00 | 83 | 1010.7 |
| 20260509092846 | 49 | 0 | 0.0 | 0.0 | 0.00 | 0.00 | 0.00 | 82 | 1010.7 |
| 20260509092345 | 49 | 0 | 0.0 | 0.0 | 0.00 | 0.00 | 0.00 | 83 | 1010.7 |
| 20260509091845 | 49 | 0 | 0.0 | 0.0 | 0.00 | 0.00 | 0.00 | 82 | 1010.7 |
| 20260509091345 | 49 | 0 | 0.0 | 0.0 | 0.00 | 0.00 | 0.00 | 82 | 1010.7 |
| 20260509090846 | 49 | 335 | 0.0 | 0.9 | 0.00 | 0.00 | 0.00 | 82 | 1010.6 |
| 20260509090345 | 49 | 0 | 0.0 | 0.0 | 0.00 | 0.00 | 0.00 | 81 | 1010.7 |
| 20260509085846 | 49 | 0 | 0.0 | 0.0 | 0.00 | 0.00 | 0.00 | 82 | 1010.7 |
| 20260509085345 | 49 | 0 | 0.0 | 0.0 | 0.00 | 0.00 | 0.00 | 82 | 1010.7 |
| 20260509084846 | 50 | 291 | 0.0 | 0.9 | 0.00 | 0.00 | 0.00 | 80 | 1010.7 |
| 20260509084347 | 50 | 0 | 0.0 | 0.0 | 0.00 | 0.00 | 0.00 | 81 | 1010.9 |
| 20260509083845 | 50 | 0 | 0.0 | 0.0 | 0.00 | 0.00 | 0.00 | 81 | 1010.9 |
| 20260509083346 | 50 | 280 | 0.0 | 0.9 | 0.00 | 0.00 | 0.00 | 78 | 1010.7 |
| 20260509082845 | 50 | 0 | 0.0 | 0.0 | 0.00 | 0.00 | 0.00 | 80 | 1010.7 |
| 20260509082346 | 50 | 0 | 0.0 | 0.0 | 0.00 | 0.00 | 0.00 | 78 | 1010.7 |
| 20260509081845 | 50 | 266 | 0.0 | 0.9 | 0.00 | 0.00 | 0.00 | 79 | 1010.7 |
| 20260509081345 | 50 | 0 | 0.0 | 0.0 | 0.00 | 0.00 | 0.00 | 77 | 1010.9 |
| 20260509080845 | 50 | 0 | 0.0 | 0.0 | 0.00 | 0.00 | 0.00 | 76 | 1011.0 |
| 20260509080345 | 50 | 0 | 0.0 | 0.0 | 0.00 | 0.00 | 0.00 | 76 | 1011.0 |
| 20260509075845 | 50 | 321 | 0.0 | 0.9 | 0.00 | 0.00 | 0.00 | 77 | 1011.0 |
| 20260509075345 | 50 | 0 | 0.0 | 0.0 | 0.00 | 0.00 | 0.00 | 76 | 1010.9 |
| 20260509074845 | 50 | 0 | 0.0 | 0.0 | 0.00 | 0.00 | 0.00 | 76 | 1011.0 |
| 20260509074345 | 50 | 313 | 0.0 | 0.9 | 0.00 | 0.00 | 0.00 | 75 | 1011.1 |
| 20260509073845 | 50 | 0 | 0.0 | 0.0 | 0.00 | 0.00 | 0.00 | 76 | 1011.0 |
| 20260509073345 | 50 | 0 | 0.0 | 0.0 | 0.00 | 0.00 | 0.00 | 76 | 1011.1 |
| 20260509072845 | 50 | 287 | 0.0 | 0.9 | 0.00 | 0.00 | 0.00 | 76 | 1011.1 |
| 20260509072345 | 50 | 346 | 0.0 | 0.0 | 0.00 | 0.00 | 0.00 | 77 | 1011.2 |
| 20260509071845 | 50 | 304 | 0.0 | 0.0 | 0.00 | 0.00 | 0.00 | 79 | 1011.2 |
| 20260509071345 | 50 | 329 | 0.0 | 1.7 | 0.00 | 0.00 | 0.00 | 77 | 1011.1 |
| 20260509070852 | 50 | 0 | 0.0 | 0.0 | 0.00 | 0.00 | 0.00 | 78 | 1011.0 |
| 20260509070346 | 51 | 304 | 0.0 | 0.9 | 0.00 | 0.00 | 0.00 | 78 | 1011.1 |
| 20260509065845 | 51 | 313 | 0.0 | 0.9 | 0.00 | 0.00 | 0.00 | 76 | 1011.1 |
| 20260509065346 | 51 | 0 | 0.0 | 0.0 | 0.00 | 0.00 | 0.00 | 77 | 1011.0 |
| 20260509064846 | 51 | 0 | 0.0 | 0.0 | 0.00 | 0.00 | 0.00 | 76 | 1011.1 |
| 20260509064346 | 51 | 0 | 0.0 | 0.0 | 0.00 | 0.00 | 0.00 | 74 | 1011.0 |
| 20260509063845 | 51 | 314 | 0.0 | 0.9 | 0.00 | 0.00 | 0.00 | 77 | 1011.2 |
| 20260509063348 | 50 | 266 | 0.0 | 0.9 | 0.00 | 0.00 | 0.00 | 76 | 1011.2 |
| 20260509062845 | 50 | 287 | 0.0 | 0.9 | 0.00 | 0.00 | 0.00 | 79 | 1011.2 |
| 20260509062348 | 50 | 0 | 0.0 | 0.0 | 0.00 | 0.00 | 0.00 | 77 | 1011.2 |
| 20260509061846 | 50 | 200 | 0.0 | 0.9 | 0.00 | 0.00 | 0.00 | 79 | 1011.2 |
| 20260509061346 | 50 | 0 | 0.0 | 0.0 | 0.00 | 0.00 | 0.00 | 78 | 1011.2 |
| 20260509060846 | 50 | 0 | 0.0 | 0.0 | 0.00 | 0.00 | 0.00 | 79 | 1011.2 |
| 20260509060346 | 51 | 0 | 0.0 | 0.0 | 0.00 | 0.00 | 0.00 | 76 | 1011.2 |
| 20260509055845 | 50 | 26 | 0.0 | 0.9 | 0.00 | 0.00 | 0.00 | 79 | 1011.1 |
| 20260509055346 | 51 | 0 | 0.0 | 0.0 | 0.00 | 0.00 | 0.00 | 77 | 1011.1 |
| 20260509054846 | 51 | 0 | 0.0 | 0.0 | 0.00 | 0.00 | 0.00 | 77 | 1011.2 |
| 20260509054345 | 51 | 0 | 0.0 | 0.0 | 0.00 | 0.00 | 0.00 | 76 | 1011.2 |
| 20260509053845 | 51 | 0 | 0.0 | 0.0 | 0.00 | 0.00 | 0.00 | 76 | 1011.3 |
| 20260509053345 | 51 | 0 | 0.0 | 0.0 | 0.00 | 0.00 | 0.00 | 76 | 1011.3 |
| 20260509052846 | 51 | 0 | 0.0 | 0.0 | 0.00 | 0.00 | 0.00 | 76 | 1011.4 |
| 20260509052346 | 51 | 0 | 0.0 | 0.0 | 0.00 | 0.00 | 0.00 | 75 | 1011.3 |
| 20260509051846 | 51 | 0 | 0.0 | 0.0 | 0.00 | 0.00 | 0.00 | 77 | 1011.4 |
| 20260509051346 | 51 | 339 | 0.0 | 0.9 | 0.00 | 0.00 | 0.00 | 79 | 1011.5 |
| 20260509050845 | 51 | 0 | 0.0 | 0.0 | 0.00 | 0.00 | 0.00 | 79 | 1011.5 |
| 20260509050345 | 51 | 0 | 0.0 | 0.0 | 0.00 | 0.00 | 0.00 | 80 | 1011.5 |
| 20260509045845 | 51 | 0 | 0.0 | 0.0 | 0.00 | 0.00 | 0.00 | 80 | 1011.5 |
| 20260509045345 | 51 | 0 | 0.0 | 0.0 | 0.00 | 0.00 | 0.00 | 79 | 1011.5 |
| 20260509044846 | 51 | 0 | 0.0 | 0.0 | 0.00 | 0.00 | 0.00 | 77 | 1011.5 |
| 20260509044346 | 51 | 0 | 0.0 | 0.0 | 0.00 | 0.00 | 0.00 | 77 | 1011.5 |
| 20260509043846 | 51 | 0 | 0.0 | 0.0 | 0.00 | 0.00 | 0.00 | 78 | 1011.5 |
| 20260509043345 | 51 | 0 | 0.0 | 0.0 | 0.00 | 0.00 | 0.00 | 77 | 1011.5 |
| 20260509042845 | 51 | 0 | 0.0 | 0.0 | 0.00 | 0.00 | 0.00 | 76 | 1011.5 |
| 20260509042346 | 51 | 0 | 0.0 | 0.0 | 0.00 | 0.00 | 0.00 | 77 | 1011.5 |
| 20260509041845 | 51 | 0 | 0.0 | 0.0 | 0.00 | 0.00 | 0.00 | 77 | 1011.5 |
| 20260509041345 | 52 | 0 | 0.0 | 0.0 | 0.00 | 0.00 | 0.00 | 77 | 1011.4 |
| 20260509040845 | 52 | 0 | 0.0 | 0.0 | 0.00 | 0.00 | 0.00 | 76 | 1011.4 |
| 20260509040346 | 52 | 0 | 0.0 | 0.0 | 0.00 | 0.00 | 0.00 | 75 | 1011.4 |
| 20260509035845 | 51 | 0 | 0.0 | 0.0 | 0.00 | 0.00 | 0.00 | 76 | 1011.5 |
| 20260509035345 | 52 | 0 | 0.0 | 0.0 | 0.00 | 0.00 | 0.00 | 76 | 1011.6 |
| 20260509034846 | 52 | 0 | 0.0 | 0.0 | 0.00 | 0.00 | 0.00 | 76 | 1011.5 |
| 20260509034347 | 52 | 0 | 0.0 | 0.0 | 0.00 | 0.00 | 0.00 | 75 | 1011.5 |
| 20260509033847 | 52 | 0 | 0.0 | 0.0 | 0.00 | 0.00 | 0.00 | 76 | 1011.5 |
| 20260509033345 | 52 | 0 | 0.0 | 0.0 | 0.00 | 0.00 | 0.00 | 75 | 1011.6 |
| 20260509032846 | 52 | 292 | 0.0 | 0.9 | 0.00 | 0.00 | 0.00 | 77 | 1011.7 |
| 20260509032345 | 52 | 0 | 0.0 | 0.0 | 0.00 | 0.00 | 0.00 | 77 | 1011.7 |
| 20260509031845 | 52 | 0 | 0.0 | 0.0 | 0.00 | 0.00 | 0.00 | 76 | 1011.8 |
| 20260509031345 | 52 | 0 | 0.0 | 0.0 | 0.00 | 0.00 | 0.00 | 75 | 1011.8 |
| 20260509030845 | 52 | 0 | 0.0 | 0.0 | 0.00 | 0.00 | 0.00 | 75 | 1011.8 |
| 20260509030345 | 53 | 0 | 0.0 | 0.0 | 0.00 | 0.00 | 0.00 | 75 | 1011.9 |
| 20260509025845 | 53 | 0 | 0.0 | 0.0 | 0.00 | 0.00 | 0.00 | 74 | 1011.9 |
| 20260509025345 | 53 | 340 | 0.0 | 0.0 | 0.00 | 0.00 | 0.00 | 73 | 1012.0 |
| 20260509024846 | 53 | 0 | 0.0 | 0.0 | 0.00 | 0.00 | 0.00 | 72 | 1012.1 |
| 20260509024345 | 53 | 0 | 0.0 | 0.0 | 0.00 | 0.00 | 0.00 | 73 | 1012.1 |
| 20260509023845 | 52 | 0 | 0.0 | 0.0 | 0.00 | 0.00 | 0.00 | 72 | 1012.1 |
| 20260509023346 | 52 | 0 | 0.0 | 0.0 | 0.00 | 0.00 | 0.00 | 74 | 1012.2 |
| 20260509022846 | 53 | 0 | 0.0 | 0.0 | 0.00 | 0.00 | 0.00 | 74 | 1012.1 |
| 20260509022346 | 53 | 0 | 0.0 | 0.0 | 0.00 | 0.00 | 0.00 | 73 | 1012.0 |
| 20260509021845 | 53 | 0 | 0.0 | 0.0 | 0.00 | 0.00 | 0.00 | 71 | 1012.1 |
| 20260509021345 | 53 | 0 | 0.0 | 0.0 | 0.00 | 0.00 | 0.00 | 73 | 1012.1 |
| 20260509020845 | 53 | 339 | 0.0 | 0.9 | 0.00 | 0.00 | 0.00 | 72 | 1012.1 |
| 20260509020345 | 53 | 0 | 0.0 | 0.0 | 0.00 | 0.00 | 0.00 | 72 | 1012.0 |
| 20260509015846 | 53 | 0 | 0.0 | 0.0 | 0.00 | 0.00 | 0.00 | 68 | 1012.0 |
| 20260509015345 | 53 | 0 | 0.0 | 0.0 | 0.00 | 0.00 | 0.00 | 72 | 1012.1 |
| 20260509014845 | 53 | 0 | 0.0 | 0.0 | 0.00 | 0.00 | 0.00 | 73 | 1012.1 |
| 20260509014346 | 53 | 0 | 0.0 | 0.0 | 0.00 | 0.00 | 0.00 | 68 | 1012.0 |
| 20260509013846 | 53 | 0 | 0.0 | 0.0 | 0.00 | 0.00 | 0.00 | 69 | 1011.9 |
| 20260509013346 | 53 | 0 | 0.0 | 0.0 | 0.00 | 0.00 | 0.00 | 71 | 1011.8 |
| 20260509012846 | 53 | 0 | 0.0 | 0.0 | 0.00 | 0.00 | 0.00 | 71 | 1011.7 |
| 20260509012346 | 53 | 0 | 0.0 | 0.0 | 0.00 | 0.00 | 0.00 | 71 | 1011.7 |
| 20260509011846 | 54 | 0 | 0.0 | 0.0 | 0.00 | 0.00 | 0.00 | 71 | 1011.7 |
| 20260509011345 | 53 | 194 | 0.0 | 1.7 | 0.00 | 0.00 | 0.00 | 69 | 1011.7 |
| 20260509010846 | 53 | 0 | 0.0 | 0.0 | 0.00 | 0.00 | 0.00 | 70 | 1011.7 |
| 20260509010346 | 54 | 0 | 0.0 | 0.0 | 0.00 | 0.00 | 0.00 | 71 | 1011.6 |
| 20260509005846 | 54 | 0 | 0.0 | 0.0 | 0.00 | 0.00 | 0.00 | 69 | 1011.6 |
| 20260509005345 | 54 | 0 | 0.0 | 0.0 | 0.00 | 0.00 | 0.00 | 70 | 1011.7 |
| 20260509004846 | 54 | 340 | 0.0 | 0.0 | 0.00 | 0.00 | 0.00 | 70 | 1011.6 |
| 20260509004345 | 54 | 0 | 0.0 | 0.0 | 0.00 | 0.00 | 0.00 | 70 | 1011.6 |
| 20260509003845 | 54 | 0 | 0.0 | 0.0 | 0.00 | 0.00 | 0.00 | 70 | 1011.5 |
| 20260509003345 | 54 | 0 | 0.0 | 0.0 | 0.00 | 0.00 | 0.00 | 68 | 1011.4 |
| 20260509002846 | 54 | 0 | 0.0 | 0.0 | 0.00 | 0.00 | 0.00 | 67 | 1011.4 |
| 20260509002346 | 54 | 0 | 0.0 | 0.0 | 0.00 | 0.00 | 0.00 | 67 | 1011.4 |
| 20260509001846 | 55 | 0 | 0.0 | 0.0 | 0.00 | 0.00 | 0.00 | 67 | 1011.4 |
| 20260509001346 | 55 | 0 | 0.0 | 0.0 | 0.00 | 0.00 | 0.00 | 67 | 1011.4 |
| 20260509000846 | 56 | 0 | 0.0 | 0.0 | 0.00 | 0.00 | 0.00 | 65 | 1011.4 |
| 20260509000347 | 57 | 0 | 0.0 | 0.0 | 0.00 | 0.00 | 0.00 | 64 | 1011.4 |
| 20260508235845 | 58 | 0 | 0.0 | 0.0 | 0.00 | 0.00 | 0.00 | 62 | 1011.4 |
| 20260508235346 | 58 | 0 | 0.0 | 0.0 | 0.00 | 0.00 | 0.00 | 59 | 1011.4 |
| 20260508234847 | 59 | 280 | 0.0 | 0.9 | 0.00 | 0.00 | 0.00 | 58 | 1011.4 |
| 20260508234346 | 60 | 0 | 0.0 | 0.0 | 0.00 | 0.00 | 0.00 | 56 | 1011.3 |
| 20260508233845 | 61 | 0 | 0.0 | 0.0 | 0.00 | 0.00 | 0.00 | 54 | 1011.3 |
| 20260508233345 | 64 | 0 | 0.0 | 0.0 | 0.00 | 0.00 | 0.00 | 55 | 1011.2 |
| 20260508232846 | 65 | 0 | 0.0 | 0.0 | 0.00 | 0.00 | 0.00 | 53 | 1011.2 |
| 20260508232346 | 66 | 339 | 0.0 | 0.9 | 0.00 | 0.00 | 0.00 | 50 | 1011.2 |
| 20260508231845 | 67 | 315 | 0.0 | 1.7 | 0.00 | 0.00 | 0.00 | 46 | 1011.1 |
| 20260508231346 | 68 | 329 | 0.0 | 0.0 | 0.00 | 0.00 | 0.00 | 46 | 1011.0 |
| 20260508230846 | 68 | 323 | 0.0 | 1.7 | 0.00 | 0.00 | 0.00 | 43 | 1011.1 |
| 20260508230346 | 68 | 0 | 0.0 | 0.0 | 0.00 | 0.00 | 0.00 | 42 | 1011.1 |
| 20260508225845 | 68 | 328 | 0.9 | 1.7 | 0.00 | 0.00 | 0.00 | 42 | 1011.1 |
| 20260508225345 | 68 | 261 | 0.9 | 1.7 | 0.00 | 0.00 | 0.00 | 43 | 1011.1 |
| 20260508224845 | 68 | 314 | 0.0 | 1.7 | 0.00 | 0.00 | 0.00 | 41 | 1011.1 |
| 20260508224345 | 67 | 0 | 0.0 | 0.0 | 0.00 | 0.00 | 0.00 | 40 | 1011.2 |
| 20260508223845 | 67 | 0 | 0.0 | 0.0 | 0.00 | 0.00 | 0.00 | 42 | 1011.3 |
| 20260508223346 | 67 | 274 | 0.9 | 1.7 | 0.00 | 0.00 | 0.00 | 42 | 1011.3 |
| 20260508222845 | 67 | 279 | 0.9 | 1.7 | 0.00 | 0.00 | 0.00 | 42 | 1011.3 |
| 20260508222345 | 67 | 268 | 1.7 | 2.6 | 0.00 | 0.00 | 0.00 | 42 | 1011.4 |
| 20260508221846 | 66 | 293 | 0.9 | 3.5 | 0.00 | 0.00 | 0.00 | 41 | 1011.3 |
| 20260508221346 | 66 | 0 | 0.0 | 0.0 | 0.00 | 0.00 | 0.00 | 43 | 1011.3 |
| 20260508220846 | 67 | 334 | 0.9 | 2.6 | 0.00 | 0.00 | 0.00 | 42 | 1011.4 |
| 20260508220346 | 67 | 287 | 0.0 | 1.7 | 0.00 | 0.00 | 0.00 | 41 | 1011.4 |
| 20260508215845 | 68 | 307 | 1.7 | 3.5 | 0.00 | 0.00 | 0.00 | 39 | 1011.4 |
| 20260508215346 | 66 | 297 | 0.9 | 2.6 | 0.00 | 0.00 | 0.00 | 41 | 1011.4 |
| 20260508214845 | 65 | 313 | 2.6 | 5.2 | 0.00 | 0.00 | 0.00 | 42 | 1011.5 |
| 20260508214346 | 65 | 273 | 1.7 | 2.6 | 0.00 | 0.00 | 0.00 | 44 | 1011.5 |
| 20260508213845 | 65 | 320 | 2.6 | 3.5 | 0.00 | 0.00 | 0.00 | 42 | 1011.5 |
| 20260508213346 | 65 | 341 | 1.7 | 4.3 | 0.00 | 0.00 | 0.00 | 42 | 1011.5 |
| 20260508212845 | 65 | 262 | 1.7 | 3.5 | 0.00 | 0.00 | 0.00 | 42 | 1011.5 |
| 20260508212346 | 65 | 253 | 2.6 | 5.2 | 0.00 | 0.00 | 0.00 | 43 | 1011.5 |
| 20260508211846 | 65 | 277 | 0.9 | 2.6 | 0.00 | 0.00 | 0.00 | 42 | 1011.5 |
| 20260508211346 | 65 | 284 | 0.9 | 2.6 | 0.00 | 0.00 | 0.00 | 44 | 1011.6 |
| 20260508210845 | 65 | 286 | 1.7 | 2.6 | 0.00 | 0.00 | 0.00 | 42 | 1011.6 |
| 20260508210346 | 65 | 1 | 1.7 | 4.3 | 0.00 | 0.00 | 0.00 | 41 | 1011.6 |
| 20260508205846 | 65 | 330 | 1.7 | 3.5 | 0.00 | 0.00 | 0.00 | 41 | 1011.6 |
| 20260508205345 | 65 | 332 | 1.7 | 3.5 | 0.00 | 0.00 | 0.00 | 42 | 1011.6 |
| 20260508204846 | 65 | 277 | 0.9 | 2.6 | 0.00 | 0.00 | 0.00 | 42 | 1011.7 |
| 20260508204345 | 64 | 310 | 2.6 | 7.8 | 0.00 | 0.00 | 0.00 | 42 | 1011.7 |
| 20260508203845 | 64 | 268 | 1.7 | 4.3 | 0.00 | 0.00 | 0.00 | 41 | 1011.7 |
| 20260508203345 | 65 | 324 | 1.7 | 3.5 | 0.00 | 0.00 | 0.00 | 41 | 1011.8 |
| 20260508202846 | 64 | 306 | 2.6 | 4.3 | 0.00 | 0.00 | 0.00 | 41 | 1011.8 |
| 20260508202346 | 64 | 283 | 2.6 | 4.3 | 0.00 | 0.00 | 0.00 | 40 | 1011.9 |
| 20260508201846 | 64 | 289 | 1.7 | 3.5 | 0.00 | 0.00 | 0.00 | 40 | 1011.9 |
| 20260508201345 | 64 | 293 | 2.6 | 4.3 | 0.00 | 0.00 | 0.00 | 42 | 1012.0 |
| 20260508200845 | 64 | 301 | 3.5 | 4.3 | 0.00 | 0.00 | 0.00 | 40 | 1012.0 |
| 20260508200346 | 65 | 308 | 2.6 | 6.1 | 0.00 | 0.00 | 0.00 | 40 | 1012.0 |
| 20260508195846 | 65 | 335 | 1.7 | 5.2 | 0.00 | 0.00 | 0.00 | 40 | 1012.0 |
| 20260508195345 | 65 | 240 | 2.6 | 7.8 | 0.00 | 0.00 | 0.00 | 39 | 1011.9 |
| 20260508194845 | 65 | 291 | 1.7 | 3.5 | 0.00 | 0.00 | 0.00 | 41 | 1012.0 |
| 20260508194345 | 65 | 264 | 0.0 | 1.7 | 0.00 | 0.00 | 0.00 | 42 | 1011.9 |
| 20260508193846 | 66 | 293 | 1.7 | 4.3 | 0.00 | 0.00 | 0.00 | 39 | 1011.9 |
| 20260508193346 | 66 | 275 | 1.7 | 3.5 | 0.00 | 0.00 | 0.00 | 39 | 1011.9 |
| 20260508192846 | 67 | 275 | 1.7 | 3.5 | 0.00 | 0.00 | 0.00 | 38 | 1011.9 |
| 20260508192346 | 66 | 306 | 2.6 | 6.1 | 0.00 | 0.00 | 0.00 | 38 | 1011.9 |
| 20260508191845 | 67 | 214 | 3.5 | 7.8 | 0.00 | 0.00 | 0.00 | 38 | 1011.8 |
| 20260508191345 | 66 | 321 | 0.9 | 1.7 | 0.00 | 0.00 | 0.00 | 38 | 1012.0 |
| 20260508190846 | 66 | 228 | 3.5 | 7.8 | 0.00 | 0.00 | 0.00 | 37 | 1012.1 |
| 20260508190346 | 66 | 256 | 1.7 | 3.5 | 0.00 | 0.00 | 0.00 | 40 | 1012.2 |
| 20260508185845 | 66 | 283 | 1.7 | 3.5 | 0.00 | 0.00 | 0.00 | 37 | 1012.2 |
| 20260508185346 | 66 | 287 | 0.9 | 2.6 | 0.00 | 0.00 | 0.00 | 38 | 1012.3 |
| 20260508184846 | 65 | 246 | 3.5 | 7.0 | 0.00 | 0.00 | 0.00 | 37 | 1012.3 |
| 20260508184346 | 66 | 290 | 1.7 | 3.5 | 0.00 | 0.00 | 0.00 | 38 | 1012.3 |
| 20260508183845 | 65 | 291 | 1.7 | 3.5 | 0.00 | 0.00 | 0.00 | 38 | 1012.4 |
| 20260508183346 | 65 | 270 | 3.5 | 6.1 | 0.00 | 0.00 | 0.00 | 36 | 1012.4 |
| 20260508182845 | 65 | 294 | 2.6 | 5.2 | 0.00 | 0.00 | 0.00 | 36 | 1012.4 |
| 20260508181847 | 67 | 282 | 1.7 | 4.3 | 0.00 | 0.00 | 0.00 | 36 | 1012.4 |
| 20260508181348 | 67 | 324 | 3.5 | 6.1 | 0.00 | 0.00 | 0.00 | 36 | 1012.4 |
| 20260508180846 | 70 | 280 | 3.5 | 7.0 | 0.00 | 0.00 | 0.00 | 35 | 1012.3 |
| 20260508180346 | 70 | 314 | 3.5 | 5.2 | 0.00 | 0.00 | 0.00 | 33 | 1012.5 |
| 20260508175847 | 68 | 306 | 3.5 | 5.2 | 0.00 | 0.00 | 0.00 | 35 | 1012.3 |
| 20260508175346 | 68 | 328 | 7.0 | 10.4 | 0.00 | 0.00 | 0.00 | 34 | 1012.3 |
| 20260508174846 | 67 | 321 | 2.6 | 4.3 | 0.00 | 0.00 | 0.00 | 35 | 1012.5 |
| 20260508174347 | 68 | 314 | 3.5 | 7.0 | 0.00 | 0.00 | 0.00 | 36 | 1012.6 |
| 20260508173846 | 69 | 252 | 2.6 | 6.1 | 0.00 | 0.00 | 0.00 | 34 | 1012.5 |
| 20260508173346 | 68 | 273 | 2.6 | 5.2 | 0.00 | 0.00 | 0.00 | 35 | 1012.6 |
| 20260508172845 | 68 | 283 | 2.6 | 5.2 | 0.00 | 0.00 | 0.00 | 37 | 1012.8 |
| 20260508172346 | 69 | 291 | 3.5 | 7.8 | 0.00 | 0.00 | 0.00 | 34 | 1012.8 |
| 20260508171846 | 69 | 284 | 5.2 | 8.7 | 0.00 | 0.00 | 0.00 | 35 | 1012.8 |
| 20260508171346 | 70 | 315 | 5.2 | 7.0 | 0.00 | 0.00 | 0.00 | 32 | 1012.9 |
| 20260508170847 | 69 | 325 | 3.5 | 6.1 | 0.00 | 0.00 | 0.00 | 34 | 1012.8 |
| 20260508170346 | 69 | 252 | 5.2 | 10.4 | 0.00 | 0.00 | 0.00 | 36 | 1013.0 |
| 20260508165846 | 69 | 275 | 1.7 | 4.3 | 0.00 | 0.00 | 0.00 | 37 | 1012.9 |
| 20260508165346 | 68 | 305 | 3.5 | 6.1 | 0.00 | 0.00 | 0.00 | 37 | 1013.1 |
| 20260508164845 | 69 | 320 | 6.1 | 8.7 | 0.00 | 0.00 | 0.00 | 34 | 1013.2 |
| 20260508164346 | 69 | 277 | 3.5 | 7.8 | 0.00 | 0.00 | 0.00 | 37 | 1013.2 |
| 20260508163846 | 68 | 286 | 5.2 | 10.4 | 0.00 | 0.00 | 0.00 | 36 | 1013.2 |
| 20260508163346 | 68 | 252 | 5.2 | 9.6 | 0.00 | 0.00 | 0.00 | 36 | 1013.2 |
| 20260508162846 | 67 | 333 | 3.5 | 5.2 | 0.00 | 0.00 | 0.00 | 35 | 1013.2 |
| 20260508162346 | 67 | 58 | 1.7 | 3.5 | 0.00 | 0.00 | 0.00 | 35 | 1013.5 |
| 20260508161847 | 67 | 318 | 3.5 | 6.1 | 0.00 | 0.00 | 0.00 | 35 | 1013.3 |
| 20260508161346 | 67 | 299 | 3.5 | 5.2 | 0.00 | 0.00 | 0.00 | 37 | 1013.5 |
| 20260508160845 | 67 | 296 | 3.5 | 6.1 | 0.00 | 0.00 | 0.00 | 38 | 1013.6 |
| 20260508160346 | 66 | 313 | 2.6 | 4.3 | 0.00 | 0.00 | 0.00 | 39 | 1013.5 |
| 20260508155846 | 65 | 243 | 5.2 | 8.7 | 0.00 | 0.00 | 0.00 | 41 | 1013.6 |
| 20260508155345 | 65 | 304 | 1.7 | 3.5 | 0.00 | 0.00 | 0.00 | 41 | 1013.6 |
| 20260508154845 | 66 | 273 | 2.6 | 3.5 | 0.00 | 0.00 | 0.00 | 39 | 1013.7 |
| 20260508154348 | 65 | 285 | 4.3 | 8.7 | 0.00 | 0.00 | 0.00 | 40 | 1013.7 |
| 20260508153851 | 64 | 275 | 3.5 | 6.1 | 0.00 | 0.00 | 0.00 | 39 | 1013.8 |
| 20260508153346 | 64 | 313 | 4.3 | 7.8 | 0.00 | 0.00 | 0.00 | 40 | 1013.7 |
| 20260508152845 | 63 | 246 | 7.8 | 12.2 | 0.00 | 0.00 | 0.00 | 40 | 1013.8 |
| 20260508152347 | 63 | 344 | 3.5 | 8.7 | 0.00 | 0.00 | 0.00 | 41 | 1013.7 |
| 20260508151845 | 63 | 350 | 1.7 | 6.1 | 0.00 | 0.00 | 0.00 | 40 | 1013.9 |
| 20260508151348 | 64 | 278 | 4.3 | 7.0 | 0.00 | 0.00 | 0.00 | 40 | 1014.0 |
| 20260508150846 | 62 | 234 | 5.2 | 7.8 | 0.00 | 0.00 | 0.00 | 42 | 1013.8 |
| 20260508150348 | 63 | 244 | 6.1 | 7.8 | 0.00 | 0.00 | 0.00 | 40 | 1013.9 |
| 20260508145846 | 62 | 260 | 3.5 | 7.8 | 0.00 | 0.00 | 0.00 | 40 | 1014.0 |
| 20260508145345 | 62 | 252 | 3.5 | 7.0 | 0.00 | 0.00 | 0.00 | 42 | 1013.9 |
| 20260508144845 | 62 | 285 | 2.6 | 4.3 | 0.00 | 0.00 | 0.00 | 41 | 1013.9 |
| 20260508144346 | 62 | 228 | 4.3 | 9.6 | 0.00 | 0.00 | 0.00 | 40 | 1013.9 |
| 20260508143846 | 61 | 262 | 1.7 | 3.5 | 0.00 | 0.00 | 0.00 | 44 | 1014.1 |
| 20260508143350 | 61 | 262 | 3.5 | 7.8 | 0.00 | 0.00 | 0.00 | 44 | 1013.9 |
| 20260508142846 | 61 | 256 | 3.5 | 5.2 | 0.00 | 0.00 | 0.00 | 43 | 1014.2 |
| 20260508141904 | 59 | 242 | 4.3 | 9.6 | 0.00 | 0.00 | 0.00 | 43 | 1014.0 |
| 20260508141347 | 59 | 264 | 2.6 | 4.3 | 0.00 | 0.00 | 0.00 | 45 | 1014.2 |
| 20260508140848 | 59 | 244 | 5.2 | 13.0 | 0.00 | 0.00 | 0.00 | 44 | 1014.3 |
| 20260508140346 | 59 | 296 | 2.6 | 3.5 | 0.00 | 0.00 | 0.00 | 45 | 1014.4 |
| 20260508135845 | 58 | 256 | 3.5 | 9.6 | 0.00 | 0.00 | 0.00 | 46 | 1014.4 |